This is the latest recevied weather packets stored in our database for station/object DB2AG-13. If no packets are shown the sender has not sent any weather packets the latest 10 day(s).
| Time | Temp. | Humidity | Pressure | Rain* | Wind** | Luminosity | Snow |
|---|---|---|---|---|---|---|---|
| 1787459046 | 12.78° C | 66% | 1023 hPa | - | - | - | - |
| 1787458503 | 12.22° C | 67% | 1022.8 hPa | - | - | - | - |
| 1787457957 | 12.22° C | 69% | 1022.9 hPa | - | - | - | - |
| 1787457413 | 12.22° C | 69% | 1022.8 hPa | - | - | - | - |
| 1787456873 | 11.67° C | 70% | 1022.7 hPa | - | - | - | - |
| 1787456334 | 11.67° C | 70% | 1022.7 hPa | - | - | - | - |
| 1787455797 | 11.11° C | 71% | 1022.7 hPa | - | - | - | - |
| 1787455257 | 11.11° C | 70% | 1022.7 hPa | - | - | - | - |
| 1787454715 | 11.11° C | 70% | 1022.8 hPa | - | - | - | - |
| 1787452001 | 11.11° C | 71% | 1022.8 hPa | - | - | - | - |
| 1787451461 | 11.11° C | 71% | 1023 hPa | - | - | - | - |
| 1787450921 | 11.11° C | 71% | 1023 hPa | - | - | - | - |
| 1787450376 | 11.11° C | 71% | 1022.9 hPa | - | - | - | - |
| 1787449288 | 11.11° C | 70% | 1022.9 hPa | - | - | - | - |
| 1787448748 | 11.11° C | 70% | 1022.8 hPa | - | - | - | - |
| 1787447665 | 11.67° C | 70% | 1022.8 hPa | - | - | - | - |
| 1787447123 | 11.67° C | 69% | 1022.8 hPa | - | - | - | - |
| 1787446582 | 11.67° C | 69% | 1022.8 hPa | - | - | - | - |
| 1787445492 | 11.67° C | 69% | 1022.6 hPa | - | - | - | - |
| 1787444951 | 12.22° C | 68% | 1022.6 hPa | - | - | - | - |
| 1787444411 | 12.22° C | 68% | 1022.6 hPa | - | - | - | - |
| 1787443868 | 12.22° C | 68% | 1022.6 hPa | - | - | - | - |
| 1787443327 | 12.22° C | 68% | 1022.6 hPa | - | - | - | - |
| 1787442787 | 12.22° C | 68% | 1022.6 hPa | - | - | - | - |
| 1787442243 | 12.22° C | 68% | 1022.6 hPa | - | - | - | - |
* Rain since midnight (hover to see other rain measurements)
** Current wind speed in m/s (hover to see current wind gust speed)